Temp
-4 -3 -3 -4 -4 -5 -6 -6 -7 -8 -8 -6 -7 -6 -7 -8 -8 -8 -9 -8 -7 -6 -6 -5 -5 -5 -6 -6 -6 -5 -6 -6 -6 -6 -6 -6 -6 -6 -7 -7 -7 -7 -7 -7
-3 -3 -4 -5 -5 -5 -5 -6 -6 -8 -8 -7 -7 -6 -6 -7 -8 -8 -8 -8 -7 -6 -6 -6 -5 -5 -6 -6 -6 -6 -6 -6 -6 -6 -6 -6 -7 -6 -7 -7 -7 -7 -7 -7
-3 -4 -4 -4 -5 -5 -5 -5 -6 -7 -8 -7 -7 -6 -6 -6 -6 -7 -8 -8 -6 -6 -6 -6 -6 -6 -6 -6 -6 -6 -6 -6 -6 -6 -6 -6 -7 -7 -7 -6 -6 -6 -7 -6
-3 -3 -4 -4 -3 -4 -5 -5 -6 -7 -8 -8 -8 -5 -5 -6 -6 -7 -7 -7 -6 -6 -6 -5 -5 -5 -5 -6 -6 -6 -6 -6 -5 -5 -6 -6 -6 -6 -6 -6 -6 -6 -6 -6
-3 -4 -4 -4 -4 -4 -4 -6 -7 -7 -8 -8 -8 -5 -5 -5 -6 -6 -7 -7 -6 -6 -6 -6 -5 -5 -5 -5 -5 -5 -5 -5 -5 -5 -5 -5 -6 -6 -6 -6 -6 -6 -6 -6
-3 -3 -3 -3 -4 -4 -5 -6 -7 -7 -8 -6 -6 -5 -4 -4 -5 -7 -7 -7 -6 -5 -6 -6 -5 -5 -5 -5 -4 -5 -5 -5 -5 -5 -5 -5 -5 -5 -6 -6 -6 -6 -6 -6
-3 -3 -3 -3 -3 -3 -3 -5 -6 -6 -6 -2 -5 -5 -2 -4 -6 -6 -6 -7 -7 -7 -5 -5 -5 -5 -5 -5 -5 -5 -5 -5 -5 -5 -5 -5 -5 -5 -5 -6 -6 -6 -6 -6
-3 -3 -3 -3 -3 -4 -4 -4 -3 -3 -3 -2 -5 -2 -1 -4 -5 -6 -7 -7 -7 -7 -6 -6 -6 -6 -6 -6 -5 -5 -5 -5 -5 -6 -6 -6 -6 -6 -6 -6 -6 -6 -6 -6
-3 -3 -4 -3 -4 -4 -4 -4 -4 -4 -4 -4 -4 -3 -4 -4 -5 -6 -5 -6 -6 -6 -6 -6 -6 -6 -6 -6 -5 -5 -5 -6 -6 -7 -7 -7 -7 -6 -6 -7 -7 -7 -7 -7
-4 -4 -4 -4 -4 -4 -4 -4 -5 -4 -4 -3 -3 -2 -2 -3 -4 -5 -6 -6 -6 -7 -7 -7 -6 -6 -7 -7 -6 -5 -5 -5 -6 -7 -7 -7 -7 -7 -7 -7 -7 -8 -7 -7
-5 -4 -4 -4 -3 -4 -3 -3 -3 -4 -4 -3 -3 -2 -2 -3 -4 -5 -5 -6 -6 -6 -6 -7 -7 -7 -7 -7 -7 -6 -6 -5 -6 -7 -7 -7 -7 -7 -7 -7 -7 -8 -8 -7
-5 -4 -4 -4 -4 -4 -4 -4 -5 -4 -3 -2 -2 -1 -2 -2 -4 -5 -6 -5 -6 -6 -6 -6 -7 -7 -7 -7 -7 -6 -6 -6 -6 -7 -7 -7 -7 -7 -7 -7 -7 -7 -8 -7
-6 -5 -5 -5 -5 -4 -3 -3 -3 -3 -3 -2 -2 -1 -3 -3 -3 -4 -5 -6 -6 -6 -6 -6 -6 -7 -6 -7 -7 -7 -7 -6 -7 -7 -7 -7 -7 -7 -7 -7 -6 -7 -8 -8
-6 -6 -5 -5 -5 -5 -4 -3 -3 -3 -3 -2 -1 -1 -2 -3 -4 -4 -4 -5 -5 -6 -6 -6 -6 -6 -6 -5 -6 -7 -7 -7 -7 -8 -7 -7 -7 -8 -7 -7 -6 -6 -8 -7
-7 -7 -6 -5 -5 -5 -4 -4 -3 -3 -3 -2 -2 -2 -2 -3 -4 -5 -4 -4 -5 -6 -6 -6 -6 -6 -5 -5 -5 -5 -6 -7 -7 -8 -8 -7 -8 -8 -7 -7 -7 -7 -7 -7
-8 -8 -7 -6 -5 -6 -5 -4 -4 -3 -3 -2 -2 -2 -2 -3 -4 -4 -4 -4 -4 -5 -5 -7 -7 -6 -6 -6 -6 -6 -7 -7 -8 -7 -7 -7 -8 -8 -8 -8 -8 -8 -7 -8
-10 -8 -8 -6 -6 -5 -4 -5 -5 -4 -4 -3 -2 -2 -2 -3 -3 -3 -4 -4 -3 -4 -5 -6 -6 -7 -7 -6 -6 -5 -7 -8 -8 -8 -8 -8 -8 -8 -8 -8 -8 -8 -8 -8
-12 -11 -9 -7 -7 -5 -4 -5 -6 -5 -5 -4 -3 -3 -3 -2 -3 -4 -4 -4 -4 -4 -5 -5 -6 -6 -6 -6 -6 -6 -6 -7 -7 -7 -7 -8 -7 -8 -8 -8 -8 -8 -8 -8
-13 -13 -11 -10 -8 -5 -5 -5 -6 -6 -4 -4 -5 -4 -3 -3 -3 -3 -4 -4 -4 -5 -4 -5 -6 -6 -7 -6 -6 -6 -6 -6 -6 -7 -7 -8 -8 -8 -8 -8 -8 -8 -8 -8
-14 -14 -13 -11 -9 -6 -5 -7 -6 -5 -4 -5 -5 -5 -4 -4 -3 -2 -5 -5 -5 -5 -5 -5 -6 -6 -7 -7 -6 -6 -6 -6 -6 -6 -7 -7 -8 -8 -8 -8 -8 -8 -8 -8
-17 -15 -13 -13 -11 -7 -6 -7 -7 -6 -4 -5 -5 -5 -5 -4 -4 -4 -5 -5 -5 -5 -5 -5 -5 -6 -7 -7 -7 -7 -7 -7 -7 -7 -7 -7 -8 -8 -8 -8 -9 -8 -8 -9
-18 -17 -14 -13 -13 -9 -7 -9 -8 -6 -6 -5 -6 -6 -6 -5 -5 -5 -6 -6 -6 -6 -6 -5 -6 -6 -7 -7 -7 -6 -7 -8 -8 -8 -8 -8 -8 -8 -8 -8 -9 -7 -9 -8
-19 -17 -16 -15 -12 -12 -10 -11 -10 -8 -8 -7 -6 -7 -7 -7 -7 -7 -7 -7 -7 -7 -7 -6 -6 -7 -8 -8 -8 -8 -8 -8 -8 -9 -8 -9 -9 -8 -8 -9 -9 -9 -9 -10
-21 -20 -17 -16 -13 -12 -12 -11 -11 -10 -9 -9 -8 -7 -7 -7 -8 -8 -8 -8 -9 -8 -8 -7 -6 -7 -7 -8 -8 -8 -8 -8 -9 -9 -9 -9 -8 -8 -9 -9 -9 -9 -9 -9
-22 -21 -19 -18 -14 -13 -13 -12 -12 -12 -11 -11 -10 -9 -8 -8 -8 -8 -8 -9 -9 -9 -9 -8 -7 -7 -7 -6 -7 -8 -8 -8 -8 -9 -9 -9 -9 -9 -9 -9 -9 -9 -9 -8
-20 -20 -21 -18 -17 -15 -13 -12 -12 -13 -12 -11 -11 -10 -10 -9 -8 -8 -8 -9 -9 -9 -9 -9 -7 -7 -7 -7 -7 -8 -8 -9 -9 -9 -9 -9 -10 -9 -9 -10 -10 -10 -9 -9
Height
5840 5841 5845 5850 5853 5859 5861 5864 5868 5870 5872 5874 5877 5880 5882 5879 5882 5882 5884 5886 5887 5888 5890 5893 5895 5899 5901 5905 5908 5910 5911 5913 5913 5915 5916 5917 5920 5922 5923 5925 5925 5925 5926 5926
5837 5840 5842 5843 5847 5852 5856 5860 5866 5868 5870 5871 5873 5876 5878 5880 5878 5880 5883 5887 5887 5887 5890 5893 5896 5899 5902 5904 5907 5910 5912 5913 5913 5914 5915 5916 5918 5920 5922 5923 5924 5925 5926 5926
5833 5837 5836 5838 5842 5845 5850 5858 5863 5866 5865 5866 5869 5871 5875 5878 5876 5875 5878 5885 5886 5887 5889 5892 5894 5898 5900 5904 5907 5909 5911 5912 5913 5914 5915 5915 5917 5919 5921 5923 5925 5925 5925 5925
5827 5831 5832 5834 5838 5842 5846 5853 5856 5858 5859 5860 5863 5863 5868 5873 5876 5875 5875 5881 5885 5885 5888 5891 5894 5896 5898 5901 5904 5907 5909 5911 5912 5913 5914 5915 5917 5919 5921 5923 5925 5924 5923 5923
5827 5827 5828 5830 5836 5836 5843 5846 5851 5853 5853 5855 5856 5857 5864 5867 5871 5873 5873 5879 5882 5884 5886 5889 5891 5895 5897 5898 5902 5905 5906 5908 5911 5912 5913 5915 5916 5917 5919 5921 5922 5922 5922 5922
5816 5819 5819 5826 5827 5831 5836 5837 5841 5844 5846 5840 5850 5852 5857 5862 5870 5873 5870 5875 5880 5882 5885 5888 5891 5893 5895 5897 5899 5902 5905 5906 5909 5911 5912 5914 5914 5915 5916 5918 5919 5919 5919 5919
5810 5813 5816 5820 5822 5825 5825 5829 5829 5832 5831 5831 5846 5845 5854 5859 5865 5870 5868 5872 5877 5880 5883 5886 5889 5892 5894 5896 5898 5899 5902 5904 5907 5908 5910 5911 5911 5912 5913 5914 5915 5915 5916 5915
5799 5802 5809 5815 5819 5822 5823 5821 5820 5823 5827 5830 5836 5835 5847 5857 5861 5866 5868 5869 5872 5874 5878 5883 5887 5889 5892 5894 5896 5898 5900 5901 5902 5903 5904 5906 5907 5908 5909 5910 5911 5912 5912 5913
5788 5792 5798 5804 5810 5813 5814 5815 5825 5820 5822 5826 5826 5834 5840 5849 5855 5861 5865 5867 5869 5872 5874 5879 5882 5886 5888 5890 5893 5894 5895 5896 5897 5898 5898 5900 5903 5905 5905 5906 5907 5908 5909 5910
5775 5781 5788 5795 5795 5799 5806 5813 5812 5811 5813 5817 5820 5826 5833 5843 5851 5856 5860 5863 5868 5870 5871 5874 5877 5881 5884 5886 5889 5890 5892 5893 5893 5893 5894 5894 5896 5899 5901 5903 5903 5904 5904 5905
5762 5769 5779 5780 5782 5794 5799 5801 5802 5804 5807 5814 5817 5823 5830 5838 5847 5851 5856 5861 5865 5867 5869 5872 5874 5877 5879 5881 5883 5886 5888 5889 5890 5891 5891 5892 5893 5894 5895 5896 5898 5899 5899 5902
5749 5753 5764 5772 5779 5783 5787 5791 5790 5795 5807 5811 5813 5817 5825 5832 5839 5846 5852 5855 5861 5864 5865 5866 5869 5869 5871 5875 5879 5882 5883 5885 5885 5887 5888 5889 5889 5890 5891 5891 5891 5893 5895 5897
5732 5738 5749 5758 5765 5769 5770 5780 5785 5792 5795 5797 5804 5812 5824 5826 5832 5838 5843 5849 5854 5858 5862 5864 5865 5866 5867 5869 5873 5876 5878 5881 5881 5883 5884 5885 5886 5887 5887 5887 5887 5887 5889 5892
5712 5721 5733 5739 5751 5757 5760 5768 5773 5780 5779 5791 5792 5808 5817 5822 5826 5831 5834 5839 5842 5847 5853 5858 5860 5862 5864 5867 5867 5871 5873 5875 5876 5878 5880 5881 5882 5883 5883 5883 5883 5883 5885 5887
5694 5702 5714 5723 5733 5741 5748 5756 5762 5765 5774 5777 5792 5797 5809 5816 5821 5823 5827 5831 5835 5839 5843 5849 5854 5858 5860 5862 5865 5868 5869 5869 5871 5872 5875 5878 5878 5878 5879 5880 5880 5879 5881 5884
5675 5686 5695 5707 5715 5724 5734 5745 5752 5757 5763 5767 5780 5784 5799 5809 5814 5817 5820 5824 5827 5832 5835 5840 5845 5849 5853 5857 5860 5861 5863 5865 5867 5869 5871 5873 5874 5875 5875 5876 5876 5877 5878 5879
5658 5666 5676 5689 5699 5707 5717 5734 5741 5748 5752 5761 5770 5783 5792 5802 5806 5809 5813 5815 5819 5823 5826 5831 5835 5840 5845 5850 5854 5855 5858 5859 5862 5864 5866 5868 5869 5870 5872 5872 5873 5874 5874 5874
5639 5647 5657 5671 5683 5690 5706 5720 5726 5731 5742 5751 5759 5771 5781 5789 5795 5800 5803 5806 5810 5815 5818 5822 5827 5831 5836 5841 5845 5849 5849 5851 5856 5859 5860 5862 5863 5865 5866 5866 5867 5868 5868 5869
5620 5628 5641 5648 5665 5681 5686 5699 5712 5721 5733 5740 5745 5757 5771 5779 5785 5788 5795 5798 5802 5806 5811 5815 5820 5824 5828 5832 5837 5840 5842 5845 5847 5850 5853 5855 5857 5859 5859 5859 5862 5862 5861 5862
5602 5610 5619 5634 5643 5659 5672 5684 5697 5707 5717 5729 5736 5745 5757 5768 5772 5781 5785 5790 5794 5798 5802 5806 5810 5815 5819 5823 5827 5829 5833 5836 5839 5843 5847 5849 5850 5850 5851 5852 5854 5855 5855 5855
5583 5591 5602 5615 5619 5637 5654 5668 5681 5692 5714 5723 5728 5736 5744 5754 5762 5771 5777 5781 5785 5789 5793 5797 5801 5807 5812 5815 5817 5819 5823 5827 5834 5836 5839 5840 5841 5841 5842 5843 5843 5843 5844 5845
5568 5577 5587 5597 5601 5612 5643 5657 5670 5683 5693 5710 5719 5728 5736 5746 5752 5759 5763 5771 5776 5781 5786 5791 5794 5796 5800 5802 5807 5811 5814 5820 5821 5824 5827 5830 5832 5833 5832 5834 5833 5832 5828 5829
5555 5562 5574 5581 5593 5608 5625 5644 5659 5671 5683 5694 5708 5720 5729 5735 5743 5750 5755 5760 5768 5773 5778 5782 5785 5788 5791 5794 5797 5801 5804 5807 5809 5812 5817 5818 5818 5821 5822 5821 5823 5823 5818 5820
5542 5545 5548 5562 5585 5597 5608 5625 5652 5664 5676 5686 5696 5709 5719 5726 5733 5740 5745 5750 5756 5763 5767 5771 5775 5779 5782 5785 5788 5792 5794 5796 5798 5801 5803 5805 5806 5806 5806 5806 5807 5808 5807 5803
5538 5536 5545 5548 5571 5586 5599 5617 5646 5658 5670 5680 5689 5698 5707 5716 5723 5731 5736 5741 5746 5752 5757 5762 5766 5770 5773 5775 5777 5780 5782 5784 5786 5787 5789 5790 5790 5791 5791 5792 5792 5793 5790 5790
5529 5528 5528 5544 5566 5574 5593 5612 5635 5656 5668 5677 5684 5691 5697 5706 5713 5720 5727 5732 5738 5743 5747 5750 5756 5759 5762 5764 5766 5767 5768 5770 5771 5772 5774 5775 5775 5776 5776 5776 5778 5778 5776 5775
Wind_Speed
14 16 13 20 19 18 22 25 25 19 20 13 13 14 15 14 9 9 9 5 4 5 9 12 16 18 18 15 11 10 11 12 12 13 13 11 10 10 9 7 6 4 2 1
14 4 11 21 24 21 24 23 25 24 23 20 18 20 16 11 14 10 4 5 7 7 10 11 13 12 13 16 13 10 10 10 12 12 11 11 8 7 7 6 4 4 3 5
17 12 16 19 22 25 22 18 22 25 30 29 24 22 20 13 15 16 14 11 13 11 10 13 12 14 15 12 11 11 10 10 10 11 9 9 10 10 9 7 6 5 5 7
21 20 21 18 17 22 24 19 27 28 33 35 31 29 22 18 17 18 16 16 16 15 13 12 12 12 13 13 13 10 9 10 9 9 10 10 9 10 9 10 9 7 6 8
19 20 20 20 12 18 18 26 26 33 35 36 39 32 23 24 20 17 21 20 20 18 15 14 16 16 16 12 11 12 12 12 11 11 11 11 12 13 12 12 9 9 8 11
30 27 29 23 23 21 21 31 33 37 41 46 37 34 24 27 16 19 20 17 15 20 19 15 15 16 15 14 14 12 12 12 11 12 12 13 14 12 13 13 11 10 9 12
30 30 29 28 27 25 27 35 41 43 47 40 34 39 15 19 15 24 22 19 13 13 17 17 13 12 13 13 13 14 13 12 13 14 15 16 17 15 15 13 12 10 11 13
38 38 33 31 26 25 26 34 42 38 37 34 39 29 13 18 24 26 23 22 24 24 17 13 10 7 5 6 6 8 12 14 15 17 18 20 19 17 16 13 13 12 12 14
45 43 38 37 34 33 33 34 30 41 40 39 40 28 28 23 25 29 25 25 28 24 20 14 17 11 4 8 12 8 9 10 13 15 17 17 20 19 18 17 16 16 15 15
50 47 42 36 41 41 38 32 38 43 43 38 35 28 20 19 22 26 25 26 26 23 23 21 19 17 11 10 15 14 11 10 13 13 12 13 18 21 22 22 20 20 19 18
54 52 49 48 49 40 40 42 43 42 42 37 34 24 21 16 19 27 25 30 30 30 26 23 19 20 14 13 20 19 13 12 10 13 12 12 13 16 19 20 23 24 24 21
60 60 56 54 49 45 43 45 46 47 37 34 33 26 20 14 17 26 31 33 29 28 28 26 26 22 27 19 20 20 16 15 13 15 13 11 12 13 13 16 21 24 24 24
65 65 62 58 57 57 57 50 50 46 45 45 41 25 23 14 14 22 31 35 31 28 27 30 30 30 33 26 27 28 22 20 19 19 15 15 13 13 15 15 18 23 26 24
71 69 66 64 61 62 62 58 55 52 55 46 45 31 21 21 20 21 31 40 42 40 37 34 35 31 32 26 24 29 26 26 23 22 19 15 12 12 14 16 16 18 26 26
77 74 72 70 66 64 63 62 61 60 55 53 43 38 28 23 20 24 26 33 41 42 40 38 37 36 32 30 25 23 26 28 29 27 22 14 13 11 10 13 15 16 20 26
82 80 78 75 73 70 66 63 62 62 60 58 50 48 38 29 25 29 29 30 32 42 41 40 37 38 35 32 33 23 29 29 26 25 19 17 18 15 12 12 17 18 18 23
87 87 83 81 78 76 74 66 64 64 64 59 54 47 40 33 31 32 34 36 33 32 40 44 43 41 40 34 36 29 32 32 27 24 24 23 23 21 15 16 17 19 21 26
91 91 90 87 83 82 76 71 70 68 66 62 58 51 47 41 37 36 37 39 39 35 38 42 47 44 40 34 33 29 22 21 25 26 31 29 27 25 22 21 21 22 24 26
92 94 93 93 90 86 84 80 72 70 69 64 62 58 51 48 45 43 40 41 40 42 39 39 46 46 44 40 33 31 29 25 28 27 32 33 32 32 34 34 23 23 32 31
94 90 96 97 97 93 90 83 78 77 73 67 66 63 57 53 54 45 41 41 42 42 44 41 44 46 45 43 41 40 35 34 25 33 33 35 34 39 39 35 28 28 31 36
84 96 97 97 101 99 95 91 85 82 74 68 65 65 61 56 55 52 41 43 39 41 44 43 41 46 50 51 50 48 48 45 30 29 36 40 39 41 41 42 42 37 39 40
64 83 99 100 102 107 97 91 89 86 79 72 70 61 60 57 52 53 52 43 41 38 38 39 41 42 45 46 49 47 41 31 31 33 39 40 39 39 45 39 43 41 48 41
49 65 79 96 110 96 97 90 87 86 85 79 72 63 59 54 53 46 47 45 39 37 38 37 38 44 44 45 46 44 43 41 40 42 42 41 45 43 41 42 44 48 46 50
32 44 61 72 99 104 100 90 82 80 75 75 71 66 62 56 56 41 44 42 34 37 37 38 39 42 46 52 49 51 50 50 51 50 51 52 49 47 48 51 50 51 52 60
25 33 38 50 66 88 99 94 69 62 62 56 46 54 62 58 54 55 44 45 39 36 38 34 36 37 39 38 41 47 53 56 57 57 55 53 50 50 52 53 55 52 58 62
30 32 38 39 40 55 72 83 81 57 38 36 38 39 40 42 44 45 51 49 43 39 41 42 38 41 41 43 42 43 43 42 44 46 46 46 50 54 56 58 61 62 65 66
Wind_Direction
268 261 255 247 243 230 222 214 205 221 238 238 245 178 167 133 138 118 99 82 123 174 176 178 169 177 178 179 171 170 172 167 162 157 150 150 154 160 155 168 161 144 154 297
249 314 270 242 230 231 231 219 211 224 239 233 233 213 206 171 143 136 126 256 150 161 164 179 173 173 178 183 184 177 178 173 166 165 166 166 176 182 192 203 198 196 228 283
246 231 239 239 230 221 224 217 203 217 230 236 239 230 214 210 191 171 163 195 167 165 177 178 184 185 190 194 192 196 200 197 184 177 175 180 191 202 219 230 240 247 267 300
233 234 236 239 238 224 219 219 212 218 227 231 238 229 214 212 203 183 180 191 168 167 181 176 185 204 181 190 197 203 200 210 204 188 194 201 195 210 223 231 241 256 278 298
245 243 243 244 249 237 210 221 226 225 232 233 232 238 203 205 208 206 178 193 171 167 175 188 185 192 202 190 200 205 205 202 202 205 207 210 211 214 221 232 231 251 277 296
233 229 233 226 221 217 209 214 220 221 226 238 233 243 202 200 204 212 179 178 183 171 168 185 207 198 195 192 195 204 210 209 201 207 218 222 225 226 226 232 241 260 279 294
246 242 241 232 230 225 217 211 218 220 225 251 236 242 204 211 204 190 161 166 177 183 180 179 195 214 204 198 201 204 210 217 220 222 222 229 233 231 229 233 243 263 282 294
236 236 236 235 233 241 239 230 230 238 243 251 237 243 207 199 186 199 176 175 191 192 190 183 180 189 216 228 227 246 242 237 236 234 230 231 237 237 238 235 242 258 270 282
233 231 227 226 228 233 234 233 244 240 245 250 259 257 251 231 205 201 204 211 200 197 198 187 186 189 229 271 246 243 237 232 229 227 233 238 240 240 235 233 240 253 257 262
231 228 222 222 228 228 228 229 234 237 241 249 253 251 254 235 220 218 214 210 194 172 174 183 190 195 223 276 236 224 226 258 242 222 227 237 236 239 242 247 244 247 249 252
234 234 223 221 230 230 229 231 231 233 239 247 260 256 260 250 223 218 221 205 195 184 176 180 193 217 228 242 229 220 227 242 233 226 227 235 240 237 239 243 245 242 243 246
234 236 233 233 230 229 227 227 238 244 246 253 258 255 256 244 218 217 218 215 211 208 193 187 200 220 212 235 248 220 234 239 219 222 225 231 243 249 253 248 242 243 235 239
233 234 234 234 231 230 231 232 234 235 236 237 241 235 244 260 236 214 213 215 218 219 219 205 202 224 223 215 236 218 241 240 219 222 223 230 242 250 259 266 262 250 227 227
234 235 233 234 231 232 232 234 237 235 238 239 240 238 233 231 235 225 216 216 220 225 226 229 220 222 231 230 219 219 232 237 230 225 228 230 238 244 258 271 273 263 231 221
234 234 234 234 234 234 233 234 236 238 241 244 244 242 226 217 220 229 225 222 220 223 228 229 233 231 242 247 243 243 231 233 234 225 229 230 227 234 257 271 277 260 251 227
233 234 235 234 235 235 233 234 237 239 240 244 244 245 234 218 217 227 238 238 227 226 231 232 234 231 234 248 255 249 235 235 237 237 235 234 231 237 252 265 270 271 245 237
228 233 234 234 235 235 234 232 235 239 242 243 244 249 245 229 224 227 234 242 243 238 230 232 239 239 244 248 250 252 236 238 243 247 248 242 237 236 248 268 277 280 273 260
223 227 232 233 234 235 234 233 233 235 238 244 245 242 242 234 222 223 231 236 243 242 241 239 236 242 248 251 249 252 248 253 240 254 259 253 250 233 239 252 266 271 269 266
222 224 228 232 231 232 235 234 233 232 234 238 243 244 242 239 231 228 226 234 241 245 242 241 241 244 250 255 258 256 255 254 250 243 245 245 256 251 244 256 262 267 266 264
224 225 226 227 231 230 231 235 235 235 232 234 237 242 241 238 238 233 226 230 236 245 245 242 242 243 246 255 260 263 262 267 261 249 250 255 253 262 266 265 264 265 261 259
229 227 227 227 230 230 229 231 233 235 231 233 238 240 242 237 241 244 228 231 233 240 247 246 246 245 245 250 257 263 266 268 264 248 248 250 250 266 264 268 261 264 263 264
238 233 228 226 230 231 230 231 232 234 234 232 234 237 241 244 241 243 247 237 234 238 244 247 246 244 245 249 255 260 262 250 237 243 246 251 248 262 277 279 265 259 262 270
239 240 237 232 225 233 233 231 231 233 235 236 234 235 239 240 244 247 248 249 240 238 239 242 247 246 241 240 248 254 249 245 242 246 239 240 251 262 254 262 264 264 274 263
234 231 238 237 228 228 232 232 230 234 238 241 240 238 236 238 242 243 244 245 237 230 236 236 237 240 238 244 248 248 254 251 251 254 259 266 263 261 246 253 256 257 259 262
242 233 236 232 234 231 230 233 227 233 237 242 247 246 242 240 242 239 240 238 237 231 229 231 238 239 238 238 243 248 253 257 258 259 262 264 262 260 261 262 256 256 263 258
243 236 229 212 210 230 231 231 228 226 221 224 231 232 235 238 241 235 233 234 233 236 236 243 249 248 240 239 248 250 249 252 255 258 259 260 256 257 258 260 262 263 262 264